カタログに戻る

CZ-4C R/B

運用中SSO
NORAD 49010·ROCKET BODY·🇨🇳 China

打ち上げ Jul 4, 2021 から Jiuquan Satellite Launch Center

Loading…

次のパス (今後24時間)

TLE

最新Source: Space-Track

元期: Sep 14, 2026, 04:56 UTC

1 49010U 21062C   26257.20608315  .00000185  00000-0  47534-4 0  9993
2 49010  98.5259 348.3548 0131943  10.0517 350.3272 14.57286166276096

AllMySatでCZ-4C R/Bをリアルタイム追跡

Download on the App Store